| time (UTC) | temp F | wind direction | speed knots | gust knots | rain 1hr in | rain 24hr in | rain mn in | humidity % | barometer mb |
| 20260901141527 | 60 | 288 | 0.0 | 0.0 | 0.00 | 0.00 | 0.00 | 83 | 1016.2 |
| 20260901140031 | 59 | 147 | 0.0 | 0.0 | 0.00 | 0.00 | 0.00 | 83 | 1015.9 |
| 20260901134516 | 59 | 232 | 0.0 | 0.0 | 0.00 | 0.00 | 0.00 | 84 | 1015.7 |
| 20260901133025 | 59 | 121 | 0.0 | 0.0 | 0.00 | 0.00 | 0.00 | 84 | 1015.7 |
| 20260901131529 | 59 | 261 | 0.0 | 0.0 | 0.00 | 0.00 | 0.00 | 84 | 1015.6 |
| 20260901130030 | 59 | 298 | 0.0 | 0.0 | 0.00 | 0.00 | 0.00 | 85 | 1015.5 |
| 20260901124533 | 60 | 225 | 0.9 | 1.7 | 0.00 | 0.00 | 0.00 | 85 | 1015.4 |
| 20260901123022 | 60 | 232 | 0.0 | 2.6 | 0.00 | 0.00 | 0.00 | 85 | 1015.4 |
| 20260901121528 | 60 | 269 | 0.0 | 1.7 | 0.00 | 0.00 | 0.00 | 83 | 1015.4 |
| 20260901120030 | 60 | 253 | 0.0 | 2.6 | 0.00 | 0.00 | 0.00 | 80 | 1015.2 |
| 20260901114531 | 60 | 309 | 0.0 | 0.0 | 0.00 | 0.00 | 0.00 | 77 | 1015.3 |
| 20260901113015 | 60 | 309 | 0.0 | 0.0 | 0.00 | 0.00 | 0.00 | 77 | 1015.4 |
| 20260901111524 | 60 | 251 | 0.0 | 0.0 | 0.00 | 0.00 | 0.00 | 77 | 1015.4 |
| 20260901110028 | 60 | 229 | 0.0 | 1.7 | 0.00 | 0.00 | 0.00 | 77 | 1015.3 |
| 20260901104530 | 60 | 279 | 0.0 | 0.9 | 0.00 | 0.00 | 0.00 | 76 | 1015.3 |
| 20260901103034 | 60 | 297 | 0.0 | 0.0 | 0.00 | 0.00 | 0.00 | 77 | 1015.2 |
| 20260901101521 | 60 | 308 | 0.0 | 2.6 | 0.00 | 0.00 | 0.00 | 77 | 1015.1 |
| 20260901100025 | 60 | 309 | 0.0 | 3.5 | 0.00 | 0.00 | 0.00 | 78 | 1015.3 |
| 20260901094530 | 60 | 275 | 0.9 | 7.0 | 0.00 | 0.00 | 0.00 | 79 | 1015.2 |
| 20260901093011 | 60 | 314 | 0.0 | 0.0 | 0.00 | 0.00 | 0.00 | 84 | 1015.1 |
| 20260901091517 | 60 | 246 | 0.0 | 2.6 | 0.00 | 0.00 | 0.00 | 85 | 1015.0 |
| 20260901090023 | 60 | 227 | 1.7 | 3.5 | 0.00 | 0.00 | 0.00 | 84 | 1015.1 |
| 20260901084520 | 61 | 263 | 0.0 | 0.9 | 0.00 | 0.00 | 0.00 | 78 | 1015.0 |
| 20260901083010 | 61 | 299 | 0.0 | 2.6 | 0.00 | 0.00 | 0.00 | 78 | 1015.0 |
| 20260901081513 | 61 | 325 | 0.0 | 0.9 | 0.00 | 0.00 | 0.00 | 78 | 1014.9 |
| 20260901080035 | 61 | 295 | 0.0 | 0.9 | 0.00 | 0.00 | 0.00 | 79 | 1014.9 |
| 20260901074526 | 61 | 298 | 0.9 | 2.6 | 0.00 | 0.00 | 0.00 | 79 | 1015.0 |
| 20260901073024 | 61 | 309 | 0.0 | 4.3 | 0.00 | 0.00 | 0.00 | 79 | 1015.1 |
| 20260901071513 | 61 | 360 | 0.0 | 4.3 | 0.00 | 0.00 | 0.00 | 79 | 1015.0 |
| 20260901070020 | 61 | 275 | 0.0 | 0.0 | 0.00 | 0.00 | 0.00 | 80 | 1015.0 |
| 20260901064526 | 60 | 290 | 0.0 | 2.6 | 0.00 | 0.00 | 0.00 | 81 | 1015.1 |
| 20260901063046 | 60 | 279 | 0.9 | 3.5 | 0.00 | 0.00 | 0.00 | 82 | 1015.1 |
| 20260901061527 | 60 | 283 | 0.0 | 3.5 | 0.00 | 0.00 | 0.00 | 84 | 1015.2 |
| 20260901060013 | 60 | 217 | 0.0 | 2.6 | 0.00 | 0.00 | 0.00 | 86 | 1015.3 |
| 20260901054519 | 60 | 294 | 0.0 | 0.0 | 0.00 | 0.00 | 0.00 | 87 | 1015.3 |
| 20260901053023 | 60 | 153 | 0.0 | 2.6 | 0.00 | 0.00 | 0.00 | 89 | 1015.4 |
| 20260901051530 | 60 | 146 | 0.0 | 2.6 | 0.00 | 0.00 | 0.00 | 89 | 1015.3 |
| 20260901050031 | 60 | 185 | 0.9 | 2.6 | 0.00 | 0.00 | 0.00 | 89 | 1015.3 |
| 20260901044524 | 60 | 160 | 0.0 | 1.7 | 0.00 | 0.00 | 0.00 | 89 | 1014.9 |
| 20260901043033 | 60 | 236 | 0.9 | 3.5 | 0.00 | 0.00 | 0.00 | 88 | 1014.9 |
| 20260901041530 | 61 | 139 | 0.0 | 0.0 | 0.00 | 0.00 | 0.00 | 88 | 1014.7 |
| 20260901040029 | 61 | 42 | 0.0 | 0.9 | 0.00 | 0.00 | 0.00 | 88 | 1014.6 |
| 20260901034538 | 61 | 84 | 0.0 | 1.7 | 0.00 | 0.00 | 0.00 | 88 | 1014.3 |
| 20260901033023 | 61 | 45 | 0.0 | 1.7 | 0.00 | 0.00 | 0.00 | 88 | 1014.0 |
| 20260901031534 | 61 | 39 | 0.9 | 2.6 | 0.00 | 0.00 | 0.00 | 88 | 1013.9 |
| 20260901030031 | 61 | 44 | 0.0 | 4.3 | 0.00 | 0.00 | 0.00 | 87 | 1013.8 |
| 20260901024508 | 62 | 46 | 3.5 | 6.1 | 0.00 | 0.00 | 0.00 | 85 | 1013.5 |
| 20260901023011 | 62 | 344 | 0.0 | 4.3 | 0.00 | 0.00 | 0.00 | 81 | 1013.5 |
| 20260901021525 | 62 | 235 | 0.9 | 7.8 | 0.00 | 0.00 | 0.00 | 84 | 1013.4 |
| 20260901020025 | 61 | 229 | 2.6 | 9.6 | 0.00 | 0.00 | 0.00 | 89 | 1013.5 |
| 20260901014531 | 61 | 213 | 6.1 | 13.0 | 0.00 | 0.00 | 0.00 | 90 | 1013.5 |
| 20260901013012 | 62 | 215 | 3.5 | 10.4 | 0.00 | 0.00 | 0.00 | 88 | 1013.4 |
| 20260901011538 | 62 | 229 | 4.3 | 11.3 | 0.00 | 0.00 | 0.00 | 87 | 1013.5 |
| 20260901010036 | 63 | 288 | 4.3 | 12.2 | 0.00 | 0.00 | 0.00 | 88 | 1013.6 |
| 20260901004535 | 63 | 213 | 5.2 | 13.0 | 0.00 | 0.00 | 0.00 | 86 | 1013.6 |
| 20260901003031 | 63 | 210 | 4.3 | 15.6 | 0.00 | 0.00 | 0.00 | 87 | 1013.7 |
| 20260901001533 | 63 | 235 | 8.7 | 15.6 | 0.00 | 0.00 | 0.00 | 86 | 1013.5 |
| 20260901000033 | 63 | 211 | 7.8 | 14.8 | 0.00 | 0.00 | 0.00 | 84 | 1013.5 |
| 20260831234532 | 63 | 231 | 7.8 | 14.8 | 0.00 | 0.00 | 0.00 | 84 | 1013.6 |
| 20260831233028 | 63 | 256 | 8.7 | 16.5 | 0.00 | 0.00 | 0.00 | 85 | 1013.6 |
| 20260831231535 | 63 | 232 | 8.7 | 17.4 | 0.00 | 0.00 | 0.00 | 85 | 1013.7 |
| 20260831230018 | 63 | 250 | 9.6 | 17.4 | 0.00 | 0.00 | 0.00 | 85 | 1013.8 |
| 20260831224524 | 63 | 221 | 7.8 | 17.4 | 0.00 | 0.00 | 0.00 | 85 | 1013.9 |
| 20260831223028 | 63 | 238 | 8.7 | 15.6 | 0.00 | 0.00 | 0.00 | 84 | 1014.1 |
| 20260831221534 | 65 | 277 | 6.1 | 13.0 | 0.00 | 0.00 | 0.00 | 82 | 1014.4 |
| 20260831220031 | 64 | 196 | 5.2 | 13.9 | 0.00 | 0.00 | 0.00 | 85 | 1014.7 |
| 20260831214524 | 63 | 217 | 7.8 | 14.8 | 0.00 | 0.00 | 0.00 | 84 | 1014.9 |
| 20260831213027 | 63 | 225 | 7.8 | 14.8 | 0.00 | 0.00 | 0.00 | 84 | 1015.0 |
| 20260831211533 | 63 | 199 | 7.0 | 15.6 | 0.00 | 0.00 | 0.00 | 86 | 1015.3 |
| 20260831210037 | 63 | 207 | 6.1 | 12.2 | 0.00 | 0.00 | 0.00 | 84 | 1015.3 |
| 20260831204516 | 63 | 211 | 7.0 | 12.2 | 0.00 | 0.00 | 0.00 | 84 | 1015.5 |
| 20260831203022 | 65 | 237 | 5.2 | 10.4 | 0.00 | 0.00 | 0.00 | 82 | 1015.5 |
| 20260831201527 | 64 | 171 | 5.2 | 10.4 | 0.00 | 0.00 | 0.00 | 82 | 1015.7 |
| 20260831200007 | 63 | 209 | 5.2 | 9.6 | 0.00 | 0.00 | 0.00 | 83 | 1015.6 |
| 20260831194514 | 63 | 206 | 5.2 | 8.7 | 0.00 | 0.00 | 0.00 | 82 | 1015.6 |
| 20260831193030 | 64 | 192 | 5.2 | 8.7 | 0.00 | 0.00 | 0.00 | 82 | 1015.7 |
| 20260831191525 | 63 | 193 | 4.3 | 8.7 | 0.00 | 0.00 | 0.00 | 83 | 1016.0 |
| 20260831190033 | 63 | 179 | 3.5 | 7.8 | 0.00 | 0.00 | 0.00 | 82 | 1016.0 |
| 20260831184512 | 62 | 133 | 4.3 | 7.0 | 0.00 | 0.00 | 0.00 | 83 | 1015.9 |
| 20260831183036 | 61 | 168 | 3.5 | 7.8 | 0.00 | 0.00 | 0.00 | 82 | 1015.9 |
| 20260831181541 | 61 | 161 | 3.5 | 7.0 | 0.00 | 0.00 | 0.00 | 82 | 1015.9 |
| 20260831180036 | 61 | 134 | 2.6 | 7.0 | 0.00 | 0.00 | 0.00 | 83 | 1015.9 |
| 20260831174532 | 61 | 216 | 2.6 | 6.1 | 0.00 | 0.00 | 0.00 | 83 | 1015.8 |
| 20260831173018 | 60 | 219 | 1.7 | 6.1 | 0.00 | 0.00 | 0.00 | 83 | 1015.8 |
| 20260831171521 | 60 | 183 | 2.6 | 5.2 | 0.00 | 0.00 | 0.00 | 83 | 1015.9 |
| 20260831170033 | 60 | 190 | 1.7 | 5.2 | 0.00 | 0.00 | 0.00 | 83 | 1015.8 |
| 20260831164530 | 60 | 167 | 1.7 | 4.3 | 0.00 | 0.00 | 0.00 | 83 | 1015.6 |
| 20260831163030 | 60 | 163 | 1.7 | 4.3 | 0.00 | 0.00 | 0.00 | 82 | 1015.5 |
| 20260831161529 | 60 | 135 | 0.9 | 2.6 | 0.00 | 0.00 | 0.00 | 83 | 1015.6 |
| 20260831160023 | 60 | 163 | 0.0 | 1.7 | 0.00 | 0.00 | 0.00 | 82 | 1015.4 |
| 20260831154605 | 59 | 274 | 0.0 | 4.3 | 0.00 | 0.00 | 0.00 | 84 | 1015.4 |
| 20260831153005 | 59 | 298 | 1.7 | 4.3 | 0.00 | 0.00 | 0.00 | 84 | 1015.3 |
| 20260831151532 | 58 | 351 | 0.9 | 3.5 | 0.00 | 0.00 | 0.00 | 86 | 1015.2 |
| 20260831150017 | 58 | 13 | 0.0 | 2.6 | 0.00 | 0.00 | 0.00 | 88 | 1015.2 |
| 20260831144507 | 57 | 347 | 1.7 | 3.5 | 0.00 | 0.00 | 0.00 | 89 | 1014.9 |
| 20260831143006 | 56 | 352 | 0.9 | 4.3 | 0.00 | 0.00 | 0.00 | 91 | 1014.8 |